Weather History for KCQX - June, 2013

Change the Weather History Date:

Thursday, June 13, 2013

  Actual Average Record
Temperature  
Mean Temperature 60 °F -  
Max Temperature 66 °F 66 °F 82 °F (1983)
Min Temperature 55 °F 54 °F 46 °F (1976)
Degree Days  
Heating Degree Days 4    
Growing Degree Days 10 (Base 50)    
Moisture  
Dew Point 53 °F    
Average Humidity 84    
Maximum Humidity 100    
Minimum Humidity 60    
Precipitation  
Precipitation 0.21 in - - ()
Sea Level Pressure  
Sea Level Pressure 29.76 in    
Wind  
Wind Speed 4 mph (East)    
Max Wind Speed 17 mph    
Max Gust Speed 25 mph    
Visibility 9 miles    
Events Rain    
Averages and records for this station are not official NWS values.
T = Trace of Precipitation, MM = Missing Value Source: NWS Daily Summary

Daily Weather History Graph

Daily Weather History Graph

Search for Another Location

Airport or City:

Trip Planner

Search our weather history database for the weather conditions in past years. The results will help you decide how hot, cold, wet, or windy it might be!

Date:

Astronomy

Jun. 13, 2013 Rise Set
Actual Time 5:04 AM EDT 8:15 PM EDT
Civil Twilight 4:30 AM EDT 8:49 PM EDT
Nautical Twilight 3:47 AM EDT 9:33 PM EDT
Astronomical Twilight 2:54 AM EDT 10:25 PM EDT
Moon 9:41 AM EDT (6/13) 11:16 PM EDT (6/13)
Length of Visible Light 16h 18m
Length of Day
15h 10m
Waxing Crescent, 21% of the Moon is Illuminated
Jun 13
Waxing Crescent
Jun 16
First Quarter
Jun 23
Full
Jun 30
Last Quarter
Jul 8
New

Hourly Weather History & Observations

Time (EDT) Temp. Dew Point Humidity Pressure Visibility Wind Dir Wind Speed Gust Speed Precip Events Conditions
12:52 AM 59.0 °F 53.1 °F 81% 29.78 in 10.0 mi WNW 3.5 mph - N/A   Mostly Cloudy
1:52 AM 57.9 °F 53.1 °F 84% 29.78 in 10.0 mi Variable 4.6 mph - N/A   Clear
2:52 AM 55.9 °F 51.1 °F 84% 29.78 in 10.0 mi Calm Calm - N/A   Clear
3:52 AM 55.9 °F 53.1 °F 90% 29.79 in 10.0 mi Calm Calm - N/A   Clear
4:52 AM 55.0 °F 53.1 °F 93% 29.81 in 10.0 mi Calm Calm - N/A   Clear
5:52 AM 57.0 °F 54.0 °F 89% 29.82 in 10.0 mi Calm Calm - N/A   Clear
6:52 AM 62.1 °F 55.0 °F 78% 29.82 in 10.0 mi Calm Calm - N/A   Clear
7:52 AM 64.0 °F 54.0 °F 70% 29.83 in 10.0 mi Calm Calm - N/A   Clear
8:52 AM 66.0 °F 52.0 °F 60% 29.82 in 10.0 mi Calm Calm - N/A   Clear
9:52 AM 63.0 °F 51.1 °F 65% 29.82 in 10.0 mi East 5.8 mph - N/A   Clear
10:52 AM 62.1 °F 50.0 °F 65% 29.83 in 10.0 mi East 5.8 mph - N/A   Overcast
11:52 AM 61.0 °F 51.1 °F 70% 29.82 in 10.0 mi Variable 4.6 mph - N/A   Overcast
12:52 PM 61.0 °F 52.0 °F 72% 29.81 in 10.0 mi East 5.8 mph - 0.00 in   Overcast
1:52 PM 59.0 °F 54.0 °F 83% 29.80 in 10.0 mi Calm Calm - 0.01 in   Overcast
2:52 PM 57.9 °F 54.0 °F 87% 29.75 in 8.0 mi ESE 8.1 mph - 0.04 in Rain Light Rain
3:52 PM 57.0 °F 54.0 °F 89% 29.78 in 10.0 mi SSE 4.6 mph - 0.01 in   Overcast
4:52 PM 60.1 °F 53.1 °F 78% 29.75 in 10.0 mi ESE 6.9 mph - N/A   Overcast
5:52 PM 57.9 °F 53.1 °F 84% 29.72 in 10.0 mi East 8.1 mph - N/A   Overcast
6:52 PM 57.0 °F 54.0 °F 89% 29.72 in 10.0 mi ENE 6.9 mph - 0.00 in   Overcast
7:52 PM 57.0 °F 53.1 °F 87% 29.71 in 10.0 mi East 8.1 mph - N/A   Overcast
8:52 PM 57.0 °F 54.0 °F 89% 29.71 in 10.0 mi East 11.5 mph - N/A   Overcast
9:47 PM 55.4 °F 55.4 °F 100% 29.72 in 5.0 mi NE 9.2 mph - 0.07 in Rain Rain
9:52 PM 55.9 °F 55.0 °F 97% 29.72 in 6.0 mi ENE 11.5 mph 18.4 mph 0.07 in Rain Light Rain
10:52 PM 55.0 °F 53.1 °F 93% 29.67 in 10.0 mi ENE 13.8 mph 21.9 mph 0.02 in Rain Light Rain
11:13 PM 55.4 °F 53.6 °F 94% 29.65 in 10.0 mi NE 17.3 mph 21.9 mph 0.00 in Rain Light Rain
11:32 PM 55.4 °F 53.6 °F 94% 29.64 in 9.0 mi ENE 15.0 mph 23.0 mph 0.00 in Rain Light Rain
11:52 PM 55.0 °F 54.0 °F 96% 29.63 in 4.0 mi ENE 13.8 mph 25.3 mph 0.06 in Rain Heavy Rain